Change the Weather History Date:

Tuesday, May 26, 2009

  Actual Average Record
Temperature  
Mean Temperature 88 °F -  
Max Temperature 102 °F 98 °F 113 °F (1951)
Min Temperature 73 °F 71 °F 54 °F (1980)
Cooling Degree Days 22    
Growing Degree Days 38 (Base 50)    
Moisture  
Dew Point 23 °F    
Average Humidity 10    
Maximum Humidity 16    
Minimum Humidity 5    
Precipitation  
Precipitation 0.00 in - - ()
Sea Level Pressure  
Sea Level Pressure 29.67 in    
Wind  
Wind Speed 6 mph (SW)    
Max Wind Speed 14 mph    
Max Gust Speed 20 mph    
Visibility 10 miles    
Events      
Averages and records for this station are not official NWS values.
T = Trace of Precipitation, MM = Missing Value Source: NWS Daily Summary

Daily Weather History Graph

Daily Weather History Graph

Search for Another Location

Airport or City:

Trip Planner

Search our weather history database for the weather conditions in past years. The results will help you decide how hot, cold, wet, or windy it might be!

Date:

Astronomy

May. 26, 2009 Rise Set
Actual Time 5:28 AM PDT 7:42 PM PDT
Civil Twilight 4:59 AM PDT 8:11 PM PDT
Nautical Twilight 4:24 AM PDT 8:47 PM PDT
Astronomical Twilight 3:46 AM PDT 9:25 PM PDT
Moon 7:24 AM PDT (5/26) 10:32 PM PDT (5/26)
Length of Visible Light 15h 11m
Length of Day
14h 14m
Waxing Crescent, 8% of the Moon is Illuminated
May 26
Waxing Crescent
May 30
First Quarter
Jun 7
Full
Jun 15
Last Quarter
Jun 22
New

Hourly Weather History & Observations

Time (PDT) Temp. Dew Point Humidity Pressure Visibility Wind Dir Wind Speed Gust Speed Precip Events Conditions
12:56 AM 81.0 °F 18.0 °F 10% 29.63 in 10.0 mi WSW 6.9 mph - N/A   Clear
1:56 AM 80.1 °F 19.9 °F 11% 29.64 in 10.0 mi NNW 4.6 mph - N/A   Clear
2:56 AM 77.0 °F 23.0 °F 13% 29.65 in 10.0 mi WSW 6.9 mph - N/A   Clear
3:56 AM 73.9 °F 24.1 °F 16% 29.66 in 10.0 mi West 8.1 mph - N/A   Clear
4:56 AM 73.9 °F 25.0 °F 16% 29.67 in 10.0 mi West 3.5 mph - N/A   Clear
5:56 AM 73.0 °F 24.1 °F 16% 29.69 in 10.0 mi NW 4.6 mph - N/A   Clear
6:56 AM 77.0 °F 25.0 °F 15% 29.71 in 10.0 mi Calm Calm - N/A   Clear
7:56 AM 79.0 °F 26.1 °F 14% 29.73 in 10.0 mi Calm Calm - N/A   Clear
8:56 AM 84.0 °F 26.1 °F 12% 29.73 in 10.0 mi NE 4.6 mph - N/A   Clear
9:56 AM 89.1 °F 27.0 °F 11% 29.73 in 10.0 mi East 5.8 mph - N/A   Clear
10:56 AM 91.0 °F 30.9 °F 12% 29.72 in 10.0 mi Variable 3.5 mph - N/A   Clear
11:56 AM 95.0 °F 30.9 °F 10% 29.70 in 10.0 mi East 6.9 mph - N/A   Clear
12:56 PM 97.0 °F 30.0 °F 9% 29.69 in 10.0 mi Calm Calm - N/A   Clear
1:56 PM 99.0 °F 28.9 °F 8% 29.66 in 10.0 mi East 8.1 mph - N/A   Clear
2:56 PM 102.0 °F 24.1 °F 6% 29.63 in 10.0 mi WSW 13.8 mph 17.3 mph N/A   Clear
3:56 PM 100.0 °F 21.0 °F 6% 29.62 in 10.0 mi South 6.9 mph 18.4 mph N/A   Clear
4:56 PM 100.0 °F 18.0 °F 5% 29.61 in 10.0 mi South 6.9 mph - N/A   Clear
5:56 PM 99.0 °F 16.0 °F 5% 29.61 in 10.0 mi SW 8.1 mph 19.6 mph N/A   Clear
6:56 PM 98.1 °F 16.0 °F 5% 29.61 in 10.0 mi SW 10.4 mph - N/A   Clear
8:56 PM 93.0 °F 21.0 °F 7% 29.64 in 10.0 mi SW 9.2 mph - N/A   Clear
9:56 PM 89.1 °F 19.9 °F 8% 29.66 in 10.0 mi WSW 8.1 mph - N/A   Clear
10:56 PM 87.1 °F 21.9 °F 9% 29.67 in 10.0 mi WSW 9.2 mph - N/A   Clear
11:56 PM 84.0 °F 21.0 °F 10% 29.70 in 10.0 mi Calm Calm - N/A   Clear